Location: Unspecified
(0.0000°N, 0.0000°E)
Time: 14:45:54
(UTC+02:00)

Orbus 21S - Visible Passes

Search period start: 01 July 2015 00:00
Search period end: 11 July 2015 00:00
Orbit: 281 x 33336 km, 24.6° (Epoch: 29 June)

Date Brightness Start Highest point End Pass type
(mag) Time Alt. Az. Time Alt. Az. Time Alt. Az.
01 Jul 6.3 05:40:02 32° SSW 05:49:22 49° SE 14:36:06 10° ENE visible
03 Jul 6.5 06:28:24 23° SW 06:45:12 65° SSE 15:31:07 10° ENE visible
04 Jul 4.2 20:33:02 10° WNW 21:03:22 81° SSW 21:06:38 21° ESE visible
05 Jul 6.8 07:16:41 11° SW 07:46:00 80° SSE 16:24:22 10° ENE visible
06 Jul 3.9 21:41:24 10° WNW 21:53:50 38° SW 21:54:45 34° SSW visible
08 Jul 7.0 03:36:11 22° SE 03:36:11 22° SE 12:06:55 10° ENE visible
08 Jul 5.5 22:41:22 10° WSW 22:42:48 12° WSW 22:42:48 12° WSW visible
10 Jul 6.5 04:24:20 36° SSE 04:26:20 37° SE 13:09:43 10° ENE visible
